User: anonymous   Login
Location: Pedimozza
(42.0500°N, 9.3500°E)
Time: 11:14:45
(UTC+00:00)
Language:

Unknown - Orbit

View from above orbital plane
View from above orbital plane
View from above satellite
View from above satellite

Ground track
Ground track

The orbit data is extracted from the following two-line orbital elements,

1 44291U 19029BJ  19292.33744704 +.00001256 +00000-0 +10558-3 0  9992
2 44291 053.0068 227.1544 0001699 102.1548 257.9630 15.05500665021700
Epoch (UTC): 19 October 2019 08:05:55
Eccentricity: 0.0001699
inclination: 53.0068°
perigee height: 549 km
apogee height: 551 km
right ascension of ascending node: 227.1544°
argument of perigee: 102.1548°
revolutions per day: 15.05500665
mean anomaly at epoch: 257.9630°
orbit number at epoch: 2170

The dashed part of the orbit path shows where the satellite is in the earth's shadow,  

DLR